Time,TemperatureF,DewpointF,PressureIn,WindDirection,WindDirectionDegrees,WindSpeedMPH,WindSpeedGustMPH,Humidity,HourlyPrecipIn,Conditions,Clouds,dailyrainin,SoftwareType,DateUTC
2013-10-22 17:40:00,60.6,48.4,29.65,SE,134,2.0,2.0,64,0.00,CLR,,0.00,WeatherDisplay:10.37,2013-10-22 21:40:00,
2013-10-22 17:50:00,60.3,48.5,29.65,ESE,120,1.0,2.0,65,0.00,CLR,,0.00,WeatherDisplay:10.37,2013-10-22 21:50:00,
2013-10-22 18:00:00,60.0,48.6,29.65,ESE,119,1.0,1.0,66,0.00,CLR,,0.00,WeatherDisplay:10.37,2013-10-22 22:00:00,
2013-10-22 18:10:00,59.7,48.7,29.66,ESE,111,1.0,2.0,67,0.00,CLR,,0.00,WeatherDisplay:10.37,2013-10-22 22:10:00,
2013-10-22 18:21:00,59.4,48.4,29.65,ESE,118,0.0,1.0,67,0.00,CLR,,0.00,WeatherDisplay:10.37,2013-10-22 22:21:00,
2013-10-22 18:30:00,58.8,48.3,29.65,NE,35,0.0,0.0,68,0.00,CLR,,0.00,WeatherDisplay:10.37,2013-10-22 22:30:00,
2013-10-22 18:40:00,58.6,48.5,29.66,East,96,0.0,0.0,69,0.00,CLR,,0.00,WeatherDisplay:10.37,2013-10-22 22:40:00,
2013-10-22 18:50:00,58.3,48.6,29.66,WNW,293,0.0,0.0,70,0.00,CLR,,0.00,WeatherDisplay:10.37,2013-10-22 22:50:00,
2013-10-22 19:00:00,57.9,48.9,29.66,ESE,116,1.0,2.0,72,0.00,CLR,,0.00,WeatherDisplay:10.37,2013-10-22 23:00:00,
2013-10-22 19:10:00,57.7,48.7,29.66,ESE,106,0.0,1.0,72,0.00,CLR,,0.00,WeatherDisplay:10.37,2013-10-22 23:10:00,
2013-10-22 19:21:00,57.6,47.9,29.66,SE,127,1.0,1.0,70,0.00,CLR,,0.00,WeatherDisplay:10.37,2013-10-22 23:21:00,
2013-10-22 19:30:00,57.2,48.3,29.66,East,79,0.0,0.0,72,0.00,CLR,,0.00,WeatherDisplay:10.37,2013-10-22 23:30:00,
2013-10-22 19:40:00,57.0,48.4,29.66,ESE,106,1.0,2.0,73,0.00,CLR,,0.00,WeatherDisplay:10.37,2013-10-22 23:40:00,
2013-10-22 19:50:00,56.8,48.6,29.67,ESE,106,1.0,2.0,74,0.00,CLR,,0.00,WeatherDisplay:10.37,2013-10-22 23:50:00,
2013-10-22 20:00:00,56.7,48.9,29.67,ESE,119,1.0,2.0,75,0.00,CLR,,0.00,WeatherDisplay:10.37,2013-10-23 00:00:00,
2013-10-22 20:10:00,56.5,48.7,29.67,SSE,147,1.0,2.0,75,0.00,CLR,,0.00,WeatherDisplay:10.37,2013-10-23 00:10:00,
2013-10-22 20:21:00,56.5,48.3,29.67,ESE,114,2.0,2.0,74,0.00,CLR,,0.00,WeatherDisplay:10.37,2013-10-23 00:21:00,
2013-10-22 20:30:00,56.5,48.3,29.67,ESE,110,1.0,3.0,74,0.00,CLR,,0.00,WeatherDisplay:10.37,2013-10-23 00:30:00,
2013-10-22 20:40:00,56.1,47.6,29.67,East,101,0.0,2.0,73,0.00,CLR,,0.00,WeatherDisplay:10.37,2013-10-23 00:40:00,
2013-10-22 20:50:00,55.9,45.9,29.68,SE,136,2.0,3.0,69,0.00,CLR,,0.00,WeatherDisplay:10.37,2013-10-23 00:50:00,
2013-10-22 21:00:00,55.9,45.5,29.68,SE,136,1.0,2.0,68,0.00,CLR,,0.00,WeatherDisplay:10.37,2013-10-23 01:00:00,
2013-10-22 21:10:00,55.5,45.5,29.68,East,93,0.0,2.0,69,0.00,CLR,,0.00,WeatherDisplay:10.37,2013-10-23 01:10:00,
2013-10-22 21:21:00,55.2,44.8,29.68,ESE,122,0.0,1.0,68,0.00,CLR,,0.00,WeatherDisplay:10.37,2013-10-23 01:21:00,
2013-10-22 21:30:00,54.9,44.1,29.69,SE,126,0.0,0.0,67,0.00,CLR,,0.00,WeatherDisplay:10.37,2013-10-23 01:30:00,
2013-10-22 21:40:00,54.5,42.2,29.69,SE,125,0.0,1.0,63,0.00,CLR,,0.00,WeatherDisplay:10.37,2013-10-23 01:40:00,
2013-10-22 21:50:00,54.3,40.7,29.69,SSW,209,0.0,1.0,60,0.00,CLR,,0.00,WeatherDisplay:10.37,2013-10-23 01:50:00,
2013-10-22 22:00:00,54.0,39.5,29.69,SSE,166,0.0,0.0,58,0.00,CLR,,0.00,WeatherDisplay:10.37,2013-10-23 02:00:00,
2013-10-22 22:10:00,53.8,39.8,29.70,SSE,153,0.0,0.0,59,0.00,CLR,,0.00,WeatherDisplay:10.37,2013-10-23 02:10:00,
2013-10-22 22:21:00,53.4,40.3,29.70,SSW,194,0.0,0.0,61,0.00,CLR,,0.00,WeatherDisplay:10.37,2013-10-23 02:21:00,
2013-10-22 22:30:00,53.1,40.8,29.70,WSW,240,0.0,0.0,63,0.00,CLR,,0.00,WeatherDisplay:10.37,2013-10-23 02:30:00,
2013-10-22 22:40:00,52.9,41.4,29.71,WSW,244,0.0,1.0,65,0.00,CLR,,0.00,WeatherDisplay:10.37,2013-10-23 02:40:00,
2013-10-22 22:50:00,52.7,41.7,29.71,West,270,1.0,3.0,66,0.00,CLR,,0.00,WeatherDisplay:10.37,2013-10-23 02:50:00,
2013-10-22 23:00:00,52.7,42.4,29.71,WNW,283,3.0,5.0,68,0.00,CLR,,0.00,WeatherDisplay:10.37,2013-10-23 03:00:00,
2013-10-22 23:10:00,52.7,42.4,29.71,West,281,5.0,6.0,68,0.00,CLR,,0.00,WeatherDisplay:10.37,2013-10-23 03:10:00,
2013-10-22 23:21:00,52.3,42.0,29.71,West,280,3.0,5.0,68,0.00,CLR,,0.00,WeatherDisplay:10.37,2013-10-23 03:21:00,
2013-10-22 23:30:00,52.0,42.1,29.71,West,276,2.0,3.0,69,0.00,CLR,,0.00,WeatherDisplay:10.37,2013-10-23 03:30:00,
2013-10-22 23:40:00,51.6,42.5,29.71,West,275,2.0,3.0,71,0.00,CLR,,0.00,WeatherDisplay:10.37,2013-10-23 03:40:00,
2013-10-22 23:50:00,51.3,42.6,29.71,West,272,0.0,0.0,72,0.00,CLR,,0.00,WeatherDisplay:10.37,2013-10-23 03:50:00,